Location: Ernez
(36.4595°N, 29.8755°E)
Time: 00:17:44
(UTC+00:00)

SJ 16-02 - Pass Details

Date: 13 November 2025
Orbit: 585 x 594 km, 75.0° (Epoch: 07 December)

Event Time Altitude Azimuth Distance (km) Brightness Sun altitude
Rises 15:56:49 0° 160° (SSE) 2,819 4.7 -13.0°
Reaches altitude 10° 15:59:33 10° 142° (SE) 1,923 3.6 -13.5°
Enters shadow 16:01:58 18° 108° (ESE) 1,464 2.8 -14.0°
